This is the latest recevied weather packets stored in our database for station/object KW4UJ. If no packets are shown the sender has not sent any weather packets the latest 10 day(s).
| Time | Temp. | Humidity | Pressure | Rain* | Wind** | Luminosity | Snow |
|---|---|---|---|---|---|---|---|
| 1777075423 | 20.56° C | 64% | 1008.3 hPa | 0 mm | - | 0 W/m² | - |
| 1777075120 | 20.56° C | 63% | 1008.2 hPa | 0 mm | - | 1 W/m² | - |
| 1777074815 | 20.56° C | 63% | 1008.2 hPa | 0 mm | - | 2 W/m² | - |
| 1777074511 | 21.11° C | 61% | 1008.1 hPa | 0 mm | - | 2 W/m² | - |
| 1777074207 | 20.56° C | 61% | 1008.2 hPa | 0 mm | - | 2 W/m² | - |
| 1777073904 | 20.56° C | 62% | 1008.5 hPa | 0 mm | - | 2 W/m² | - |
| 1777073599 | 20.56° C | 62% | 1008.5 hPa | 0 mm | - | 2 W/m² | - |
| 1777073295 | 20.56° C | 63% | 1008.2 hPa | 0 mm | - | 3 W/m² | - |
| 1777072990 | 20.56° C | 63% | 1007.9 hPa | 0 mm | - | 3 W/m² | - |
| 1777072687 | 20.56° C | 64% | 1007.8 hPa | 0 mm | - | 4 W/m² | - |
| 1777072386 | 21.11° C | 64% | 1007.4 hPa | 0 mm | - | 8 W/m² | - |
| 1777072085 | 21.11° C | 63% | 1007.4 hPa | 0 mm | - | 14 W/m² | - |
| 1777071781 | 21.11° C | 63% | 1007.2 hPa | 0 mm | - | 21 W/m² | - |
| 1777071479 | 21.11° C | 62% | 1007.3 hPa | 0 mm | - | 24 W/m² | - |
| 1777071177 | 21.11° C | 61% | 1007.4 hPa | 0 mm | - | 28 W/m² | - |
| 1777070874 | 21.67° C | 60% | 1007.5 hPa | 0 mm | - | 37 W/m² | - |
| 1777070572 | 21.67° C | 59% | 1007.4 hPa | 0 mm | - | 47 W/m² | - |
| 1777070271 | 21.67° C | 60% | 1007.4 hPa | 0 mm | - | 54 W/m² | - |
| 1777069971 | 22.22° C | 59% | 1007.3 hPa | 0 mm | - | 56 W/m² | - |
| 1777069671 | 22.22° C | 59% | 1007.2 hPa | 0 mm | - | 65 W/m² | - |
| 1777069366 | 22.22° C | 60% | 1007.4 hPa | 0 mm | - | 90 W/m² | - |
| 1777069064 | 22.22° C | 61% | 1007.3 hPa | 0 mm | - | 104 W/m² | - |
| 1777068759 | 22.22° C | 60% | 1007.3 hPa | 0 mm | - | 107 W/m² | - |
| 1777068455 | 22.22° C | 61% | 1007.4 hPa | 0 mm | - | 113 W/m² | - |
| 1777068154 | 22.22° C | 60% | 1007.1 hPa | 0 mm | - | 126 W/m² | - |
* Rain latest hour (hover to see other rain measurements)
** Current wind speed in m/s (hover to see current wind gust speed)